Regional Weather Roundup
Issued by NWS

Home | Current Version | Previous Version | Text Only | Print | Product List | Glossary On
Versions: 1 2 3 4 5 6 7 8 9 10 11 12 13 14 15 16 17 18 19 20 21 22 23 24 25 26 27 28 29 30 31 32 33 34 35 36 37 38 39 40 41 42 43 44 45 46 47 48 49 50
950
ASUS42 KTBW 251817
RWRFL
FLORIDA REGIONAL WEATHER ROUNDUP
NATIONAL WEATHER SERVICE TAMPA BAY RUSKIN FL
200 PM EDT THU MAY 25 2017

NOTE: "FAIR" INDICATES FEW OR NO CLOUDS BELOW 12,000 FEET WITH NO
SIGNIFICANT WEATHER AND/OR OBSTRUCTIONS TO VISIBILITY.

FLZ001>010-012>015-112-114-115-251900-
PANHANDLE FLORIDA

CITY           SKY/WX    TMP DP  RH WIND       PRES   REMARKS
PENSACOLA      SUNNY     79  47  32 NW13      29.86F
PENSACOLA NAS  SUNNY     79  46  31 NW9G16    29.86F
MILTON NAS     MOSUNNY   76  49  38 NW13G23   29.87
CRESTVIEW      SUNNY     78  48  34 N10G17    29.88F
DUKE FIELD     MOSUNNY   77  46  34 NW9       29.86F
VALPARAISO     MOSUNNY   78  46  31 NW10      29.86F
MARY ESTHER    MOSUNNY   77  45  31 NW12G18   29.85
PANAMA CITY    FAIR      77  50  38 NW15      29.85S
TYNDALL AFB    MOSUNNY   76  52  42 W16G26    29.88R
APALACHICOLA   SUNNY     78  54  43 W17       29.88R

STATION/POSITION SKY/WX   TEMP    WIND        PRES    WAVE   SWELL
                          AIR SEA DIR/SP/G            HT/PER HT/PER
                          (F)     (DEG/KT/KT) (MB)    (FT/S) (FT/S)
30.1N   87.6W              71 77  290/ 14/ 17 1011.8F   3/ 8   3/ 8
29.2N   88.2W              74 78  280/ 12/ 16 1013.1R   3/ 8   2/ 8
28.8N   86.0W              74 77  300/ 14/ 16 1012.3R   6/ 7   3/ 7
PANAMA CITY BEAC           72 78  270/ 18/ 20 1012.1S
TOWER C                    71     310/ 21/ 23 1012.4R
28.5N   84.5W              73 76  300/ 10/ 14 1012.5R   6/ 6   5/ 6

$$
FLZ011-016>038-118-127-128-134-139-239-251900-
NORTH FLORIDA

CITY           SKY/WX    TMP DP  RH WIND       PRES   REMARKS
MARIANNA       SUNNY     76  49  38 W15       29.86S
TALLAHASSEE    MOSUNNY   79  47  32 NW16G23   29.85S
PERRY          SUNNY     78  51  39 W14       29.87S
CROSS CITY     SUNNY     77  54  44 W13G23    29.88R
LAKE CITY      FAIR      77  52  41 W16G22    29.86S
GAINESVILLE    SUNNY     80  53  39 W12       29.85F
WILLISTON      SUNNY     82  55  39 W13       29.87S
PALATKA        FAIR      81  55  41 W16G22    29.85F
MAYPORT NAS    MOSUNNY   80  53  39 W14G23    29.82S
JACKSONVILLE   MOSUNNY   79  51  37 W21G26    29.82S
JAX NAS        MOSUNNY   80  49  33 W22G32    29.83F
FERNANDINA BEA FAIR      81  50  34 W18G28    29.81S
ST AUGUSTINE   SUNNY     80  53  39 SW21G30   29.83F
PALM COAST     MOSUNNY   81  57  44 W12G24    29.84F

STATION/POSITION SKY/WX   TEMP    WIND        PRES    WAVE   SWELL
                          AIR SEA DIR/SP/G            HT/PER HT/PER
                          (F)     (DEG/KT/KT) (MB)    (FT/S) (FT/S)
SHELL POINT      NOT AVBL
KEATON BEACH               73     290/ 14/ 16 1011.2F
CEDAR KEY                  74     310/  7/ 10 1012.6R
FERNANDINA                 76 77  270/ 13/ 19 1010.6F
30.7N   81.3W                 78                N/A     3/ 4
MAYPORT                    76 78  270/ 13/ 23 1010.1S
31.4N   80.9W              73 77  250/ 21/ 25 1008.6R   4/ 4   2/11
ST AUGUSTINE               78 77  270/ 12/ 17 1011.0F

$$
FLZ040-043>046-052-053-057-058-063-144-251900-
INTERIOR CENTRAL FLORIDA

CITY           SKY/WX    TMP DP  RH WIND       PRES   REMARKS
OCALA          MOSUNNY   81  58  45 SW10G22   29.87F
THE VILLAGES     N/A     82  63  51 SE16      29.77S
LEESBURG       SUNNY     83  61  47 W9G21     29.87F
SANFORD        SUNNY     83  57  41 SW10G18   29.85F
ORLANDO EXEC   MOSUNNY   84  60  44 W14G23    29.86S
ORLANDO INTL   MOSUNNY   81  58  45 W13       29.85F
KISSIMMEE      MOSUNNY   84  61  45 W12G21    29.87S
WINTER HAVEN   MOSUNNY   85  56  37 W13       29.88F
LAKELAND       PTSUNNY   82  57  42 NW12G21   29.88F
BARTOW         MOSUNNY   82  55  39 W14G21    29.88S
OKEECHOBEE     CLOUDY    81  72  74 NW12      29.89S

$$
FLZ041-047-054-059-064-141-147-251900-
EAST CENTRAL FLORIDA

CITY           SKY/WX    TMP DP  RH WIND       PRES   REMARKS
ORMOND BEACH   MOSUNNY   81  57  44 W17G25    29.85F
DAYTONA BEACH  MOSUNNY   84  57  39 W20G25    29.84F
DELAND         SUNNY     82  55  39 W17G23    29.85S
NEW SMYRNA BEA MOSUNNY   84  57  39 W16G28    29.85F
JFK SPACE CTR  MOSUNNY   85  58  40 NW13      29.84S
TITUSVILLE     MOSUNNY   88  55  33 W16       29.85F
CAPE CANAVERAL PTSUNNY   86  62  43 W10G20    29.84S
PATRICK AFB    CLOUDY    83  63  51 W12       29.86S
MELBOURNE      CLOUDY    84  65  52 W13G18    29.87R
VERO BEACH     CLOUDY    81  71  71 NW12      29.88S
FT PIERCE      CLOUDY    83  74  74 W12       29.87F

STATION/POSITION SKY/WX   TEMP    WIND        PRES    WAVE   SWELL
                          AIR SEA DIR/SP/G            HT/PER HT/PER
                          (F)     (DEG/KT/KT) (MB)    (FT/S) (FT/S)
28.5N   80.2W              77 77  230/ 14/ 16 1012.2F   2/ 3   2/ 7
28.9N   78.5W              78 78  290/ 19/ 23 1011.0R   8/ 7
TRIDENT PIER               81 80  220/ 11/ 14 1012.4F
28.4N   80.5W                 75                N/A     1/ 4
27.5N   80.2W                 69                N/A     1/12

$$
FLZ050-056-061-142-242-148-248-149-249-151-251-155-255-
160-260-251900-
WEST CENTRAL FLORIDA

CITY           SKY/WX    TMP DP  RH WIND       PRES   REMARKS
CRYSTAL RIVER  FAIR      77  57  50 W7G20     29.90R
INVERNESS      FAIR      79  59  50 CALM      29.89R
BROOKSVILLE    MOSUNNY   82  60  47 W15G21    29.90S
CLEARWATER AIR PTSUNNY   79  63  57 N8G17     29.90R
ST PETE CLEARW MOSUNNY   82  62  50 NW8G20    29.90R
TAMPA INTL     PTSUNNY   83  60  45 W12       29.90R
TAMPA EXEC     CLOUDY    84  61  45 NW7       29.90R
PLANT CITY     MOSUNNY   84  61  45 W16G22    29.91R
MACDILL AFB    PTSUNNY   84  61  44 W10       29.89S
PETER O KNIGHT PTSUNNY   82  64  54 W8        29.90R
ST PETERSBURG  PTSUNNY   80  60  50 NW13G20   29.88R
SARASOTA       CLOUDY    79  60  52 W12       29.90R
VENICE         PTSUNNY   81  63  54 NW14      29.91F

STATION/POSITION SKY/WX   TEMP    WIND        PRES    WAVE   SWELL
                          AIR SEA DIR/SP/G            HT/PER HT/PER
                          (F)     (DEG/KT/KT) (MB)    (FT/S) (FT/S)
27.3N   84.2W                 77                N/A     6/ 7
CLEARWATER BEACH           75 80  350/ 15/ 19 1012.8R
MIDDLE TAMPA BAY           77     310/ 12/ 14 1012.9R
VENICE                     78 82  300/ 13/ 16 1012.7R

$$
FLZ066-069-070-075>078-162-262-165-265-251900-
SOUTHWEST FLORIDA AND KEYS

CITY           SKY/WX    TMP DP  RH WIND       PRES   REMARKS
PUNTA GORDA    PTSUNNY   84  66  54 NW10      29.91F
FT MYERS       CLOUDY    81  70  69 NW13      29.88F
SOUTHWEST INTL CLOUDY    80  70  71 NW12G18   29.89F
NAPLES         CLOUDY    83  74  74 W13       29.89F
MARCO ISLAND   CLOUDY    79  75  89 W8        29.91R
IMMOKALEE      FAIR      82  75  78 W10G18    29.89F
MARATHON       CLOUDY    89  80  74 SW8G16    29.92F HX 106
KEY WEST NAS   CLOUDY    86  79  79 SW17      29.92F HX  99
KEY WEST INTL  PTSUNNY   85  78  80 SW14      29.92F HX  96

STATION/POSITION SKY/WX   TEMP    WIND        PRES    WAVE   SWELL
                          AIR SEA DIR/SP/G            HT/PER HT/PER
                          (F)     (DEG/KT/KT) (MB)    (FT/S) (FT/S)
NAPLES                        84  270/ 13/ 15 1012.4F
DRY TORTUGAS               82     230/ 12/ 13 1013.1F
SAND KEY                   82     240/ 13/ 15 1014.0F
LONG KEY                   83 84  220/ 19/ 23 1013.4F
MOLASSES REEF              82 81  230/ 18/ 19 1013.5F

$$
FLZ067-068-071>074-168-172>174-251900-
SOUTHEAST FLORIDA

CITY           SKY/WX    TMP DP  RH WIND       PRES   REMARKS
W PALM BEACH   TSTM      80  75  84 SW8       29.93R
BOCA RATON     PTSUNNY   81  73  78 W15G22    29.91R
FT LAUDER-EXEC CLOUDY    85  73  67 SW14      29.91R
FT LAUDERDALE  TSTM      79  74  84 SW13      29.90S
POMPANO BEACH  CLOUDY    83  74  74 SW13      29.90F
PEMBROKE PINES TSTM      79  75  87 S10       29.92R
OPA LOCKA      LGT RAIN  80  76  87 VRB3      29.91F
MIAMI          CLOUDY    84  75  74 CALM      29.91R THUNDER
WEST KENDALL   PTSUNNY   90  73  57 SW20G29   29.89S HX  98
HOMESTEAD      PTSUNNY   89  79  72 SW21G30   29.90F HX 105

STATION/POSITION SKY/WX   TEMP    WIND        PRES    WAVE   SWELL
                          AIR SEA DIR/SP/G            HT/PER HT/PER
                          (F)     (DEG/KT/KT) (MB)    (FT/S) (FT/S)
PORT EVERGLADES            81     240/  9/ 16 1012.7R
VIRGINIA KEY               85 83  190/ 18/ 22 1011.9F
LAKE WORTH                 79 81              1013.4F
FOWEY ROCKS                83 81  200/ 23/ 25 1013.5F
SETTLEMENT POINT           82     220/ 19/ 22 1012.1F

$$





USA.gov is the U.S. government's official web portal to all federal, state and local government web resources and services.